Overview Statistics Trail Chart Weather Telemetry Raw packets
 

This is the latest recevied weather packets stored in our database for station/object PY5AL-13. If no packets are shown the sender has not sent any weather packets the latest 10 day(s).

<< 22 23 24 25 26 27 28 >>
Time Temp. Humidity Pressure Rain* Wind** Luminosity Snow
1777156427 30° C 57% 1012 hPa - - - -
1777155227 30° C 57% 1011.7 hPa - - - -
1777154027 30° C 56% 1011.5 hPa - - - -
1777152827 30° C 54% 1011.5 hPa - - - -
1777151627 30° C 59% 1011.3 hPa - - - -
1777150440 30° C 59% 1011.2 hPa - - - -
1777149227 30° C 59% 1011 hPa - - - -
1777148027 30.56° C 60% 1011 hPa - - - -
1777146837 30.56° C 59% 1010.8 hPa - - - -
1777145627 30.56° C 59% 1010.5 hPa - - - -
1777144427 30.56° C 58% 1010.5 hPa - - - -
1777143227 30.56° C 58% 1010.4 hPa - - - -
1777142027 30.56° C 58% 1010.2 hPa - - - -
1777140827 30.56° C 58% 1010.1 hPa - - - -
1777139627 30° C 59% 1010.1 hPa - - - -
1777138427 30° C 58% 1010.1 hPa - - - -
1777137227 30° C 59% 1010.2 hPa - - - -
1777136027 29.44° C 60% 1010.3 hPa - - - -
1777134828 29.44° C 62% 1010.3 hPa - - - -
1777133627 29.44° C 61% 1010.6 hPa - - - -
1777132427 28.89° C 63% 1011 hPa - - - -
1777131228 28.89° C 64% 1011.4 hPa - - - -
1777130028 28.33° C 64% 1011.6 hPa - - - -
1777128828 28.33° C 64% 1011.9 hPa - - - -
1777127628 28.33° C 64% 1012.1 hPa - - - -

* Rain since midnight (hover to see other rain measurements)
** Current wind speed in m/s (hover to see current wind gust speed)